Flag Weather past 2 weeks in Shenyang, Liaoning, China

Now
28 °F

Clear.


Feels Like: 25 °F
Forecast: 12 / 46 °F
Wind: 3 mph from Southeast

Location: Shenyang / Taoxian

Current Time: Nov 28, 2014 at 7:19:03 PM

Latest Report: Nov 28, 2014 at 7:00 PM


Visibility: 4 mi

Pressure: 30.09 "Hg

Humidity: 51%

Dew point: 12 °F

Location of ShenyangLocation

Historic Weather in Shenyang — Graph

°F

Shenyang temperature yesterday

Maximum temperature yesterday: 43 °F (at 12:00 AM)
Minimum temperature yesterday: 28 °F (at 10:00 PM)
Average temperature yesterday: 36 °F

Past Weeks' High & Low Weather Summary

 TemperatureHumidityPressure
High54 °F (Nov 20, 11:00 AM)100% (Nov 21, 5:30 AM)30.42 "Hg (Nov 21, 5:30 AM)
Low14 °F (Nov 14, 6:30 AM)13% (Nov 27, 2:00 PM)29.95 "Hg (Nov 20, 4:00 PM)
Average35 °F56%30.23 "Hg
* Reported Nov 13 6:00 PM — Nov 28 6:00 PM, Shenyang, Weather by CustomWeather, © 2014

Note: Actual official high and low records may vary slightly from our data, if they occured in-between our weather recording intervals... More about our weather records

Advertising

Shenyang weather history for previous 24 hours

 ConditionsComfort  
Time TempWeatherWind HumidityBarometerVisibility
6:00 PM
Nov 28
30 °FClear.1 mph47%30.09 "Hg4 mi
5:30 PM36 °FClear.1 mph27%30.09 "Hg4 mi
5:00 PM34 °FClear.1 mph29%30.09 "Hg4 mi
4:30 PM36 °FClear.3 mph27%30.09 "Hg4 mi
4:00 PM37 °FClear.3 mph28%30.07 "Hg4 mi
3:30 PM39 °FClear.3 mph26%30.07 "Hg4 mi
3:00 PM39 °FClear.3 mph28%30.07 "Hg4 mi
2:30 PM41 °FClear.1 mph28%30.07 "Hg4 mi
2:00 PM39 °FClear.3 mph30%30.07 "Hg4 mi
1:30 PM39 °FClear.3 mph30%30.07 "Hg4 mi
1:00 PM39 °FClear.3 mph30%30.07 "Hg4 mi
12:30 PM39 °FClear.1 mph30%30.07 "Hg4 mi
12:00 PM39 °FClear.6 mph30%30.07 "Hg4 mi
11:30 AM37 °FClear.3 mph35%30.09 "Hg4 mi
11:00 AM37 °FClear.3 mph33%30.09 "Hg4 mi
10:30 AM36 °FClear.6 mph32%30.09 "Hg4 mi
10:00 AM36 °FClear.3 mph30%30.12 "Hg4 mi
9:30 AM34 °FSunny.6 mph29%30.12 "Hg10 mi
9:00 AM34 °FSunny.3 mph27%30.12 "Hg10 mi
8:30 AM32 °FOvercast.3 mph29%30.12 "HgN/A
8:00 AM32 °FOvercast.6 mph34%30.12 "HgN/A
7:30 AM30 °FOvercast.3 mph37%30.12 "Hg5 mi
7:00 AM30 °FOvercast.3 mph37%30.15 "HgN/A
6:30 AM30 °FOvercast.3 mph37%30.15 "HgN/A
6:00 AM30 °FOvercast.3 mph40%30.15 "HgN/A
5:30 AM30 °FPassing clouds.1 mph40%30.15 "HgN/A
5:00 AM30 °FPassing clouds.3 mph40%30.18 "HgN/A
4:30 AM30 °FPassing clouds.3 mph43%30.18 "HgN/A
4:00 AM30 °FOvercast.1 mph37%30.21 "HgN/A
3:30 AM30 °FOvercast.1 mph37%30.21 "HgN/A
3:00 AM30 °FOvercast.1 mph37%30.21 "HgN/A
2:30 AM32 °FOvercast.1 mph32%30.21 "HgN/A
2:00 AM32 °FOvercast.1 mph29%30.21 "HgN/A
1:30 AM32 °FOvercast.3 mph29%30.21 "HgN/A
1:00 AM32 °FOvercast.3 mph29%30.21 "HgN/A
12:30 AM32 °FPassing clouds.3 mph29%30.21 "HgN/A
12:00 AM30 °FClear.6 mph29%30.21 "Hg10 mi
11:30 PM
Nov 27
30 °FClear.3 mph29%30.21 "Hg10 mi
11:00 PM30 °FClear.6 mph29%30.21 "Hg10 mi
10:30 PM30 °FClear.3 mph26%30.24 "Hg10 mi
10:00 PM28 °FClear.6 mph29%30.24 "Hg10 mi
9:30 PM30 °FClear.8 mph26%30.24 "Hg10 mi
9:00 PM30 °FClear.6 mph26%30.27 "Hg10 mi
8:30 PM30 °FClear.6 mph26%30.27 "Hg10 mi
8:00 PM30 °FClear.6 mph26%30.27 "Hg10 mi
7:30 PM30 °FClear.8 mph26%30.27 "Hg10 mi
7:00 PM32 °FClear.8 mph23%30.27 "Hg10 mi
Weather by CustomWeather, © 2014

See weather overviewHow to use our weather pages